GFSGBSN_850_thetae_000.txt.gz
Theta_e
319 318 318 319 318 318 318 318 318 318 319 319 319 320 320 321 322 323 323 324 326 325 321 318 317 318 319 321 322 322 320 320 320 323 325 334 334 331 332 332 333 341 346 348 347 345 344
317 317 316 316 317 317 316 316 317 317 317 318 318 319 319 320 321 322 323 326 326 317 316 315 315 314 318 323 320 320 324 319 320 323 325 334 330 329 330 331 334 342 346 346 344 340 340
313 313 313 313 313 315 315 315 315 315 316 317 317 317 319 318 320 322 323 327 326 317 317 315 313 314 319 322 323 323 324 320 323 324 328 332 329 328 329 336 339 345 348 348 344 345 341
308 309 309 310 311 311 312 313 313 313 314 315 316 315 317 318 319 321 322 328 326 320 318 321 319 317 325 320 327 324 324 325 324 328 331 330 327 328 330 335 342 342 343 345 345 345 343
307 307 307 307 308 309 309 310 310 311 312 313 315 314 315 317 318 320 323 328 326 325 324 319 323 329 329 327 327 326 324 324 325 329 330 327 327 329 332 334 337 340 340 339 345 346 346
306 306 306 306 306 307 307 308 308 309 310 311 313 313 314 316 317 319 326 328 325 324 325 322 320 328 328 327 327 325 325 325 328 329 328 328 328 330 331 334 334 335 337 338 340 344 346
303 304 304 305 305 305 306 306 306 307 308 309 310 313 314 315 317 318 327 328 329 329 327 330 330 328 327 326 326 325 325 326 327 327 329 329 332 331 330 331 331 331 333 337 338 341 344
303 303 303 304 304 304 305 305 306 306 307 308 309 312 312 315 316 318 325 329 330 327 329 328 328 328 328 326 326 326 327 327 327 328 328 328 329 330 330 331 330 330 331 333 339 342 344
303 303 303 303 304 304 304 305 305 306 306 307 308 310 310 315 316 320 324 321 328 326 329 329 327 328 327 326 325 325 327 327 327 327 328 327 328 330 330 330 331 332 332 332 337 345 345
302 303 303 303 303 304 304 304 305 305 306 306 307 308 309 314 315 317 319 326 326 327 330 329 326 327 327 325 325 324 326 326 327 328 328 330 329 329 330 331 332 333 333 333 335 347 343
302 302 303 303 303 303 303 303 304 305 305 306 306 308 308 309 312 314 320 320 325 326 331 327 329 327 326 326 326 327 327 327 328 329 329 330 329 330 330 331 332 334 337 338 340 346 345
302 302 302 302 302 302 303 303 304 304 305 306 306 307 308 309 313 314 317 323 328 330 327 328 326 328 327 327 327 327 327 327 328 329 330 331 330 331 332 331 331 338 341 341 341 339 341
304 303 303 303 303 303 304 304 304 305 306 306 307 307 308 308 313 318 319 329 334 330 328 327 326 328 328 327 327 328 329 329 329 330 331 331 330 331 331 332 333 335 335 335 335 335 335
304 303 304 303 302 302 303 303 303 304 306 307 308 308 309 310 312 312 313 329 335 329 328 329 326 327 327 328 327 329 329 330 330 331 331 332 332 331 332 332 332 332 332 331 333 332 331
305 305 304 304 302 301 302 302 303 303 305 306 308 308 310 311 313 312 320 331 332 329 332 331 327 326 327 327 327 328 330 330 330 330 331 331 331 331 331 332 333 332 332 332 332 331 331
305 305 305 304 303 302 302 302 302 302 304 305 308 308 313 313 314 312 325 328 330 329 330 330 330 327 327 327 327 328 330 330 330 329 330 331 332 331 331 331 331 334 333 332 332 334 334
304 304 305 305 303 302 302 302 302 302 303 306 307 311 318 322 318 316 327 329 329 327 327 330 331 330 328 327 328 329 330 329 329 329 330 330 331 333 332 332 332 333 333 334 334 334 334
304 304 305 304 303 302 302 302 302 302 304 306 311 315 319 318 322 323 327 329 326 327 326 327 329 330 330 328 328 329 329 330 328 329 328 330 331 332 332 333 333 333 333 334 335 339 335
303 304 304 305 303 301 301 302 302 302 304 307 316 315 321 321 326 329 329 329 327 327 327 327 329 329 329 330 330 329 329 329 328 329 330 331 330 331 333 334 333 334 334 334 335 335 336
301 301 303 305 305 302 301 302 302 302 305 311 319 323 324 323 326 328 329 328 328 324 326 325 328 329 331 331 333 332 332 332 331 331 328 331 331 332 331 332 332 334 334 335 334 336 336
300 301 302 303 304 302 302 302 302 302 305 311 320 323 321 327 327 326 326 327 328 328 326 327 329 329 331 333 332 332 333 334 333 331 331 332 335 333 332 331 332 332 334 334 335 335 336
300 301 302 302 302 303 302 302 302 302 306 312 318 319 320 324 322 324 320 327 326 326 327 327 330 331 332 333 335 333 332 334 335 334 335 335 337 336 333 332 332 332 332 334 334 334 336
300 300 301 302 302 302 303 303 302 303 304 311 311 313 316 317 324 325 326 325 325 325 326 326 329 332 331 332 329 330 330 332 332 337 336 337 338 339 335 334 334 335 335 335 334 335 334
299 300 300 300 301 301 305 303 303 303 302 307 309 311 315 317 321 321 321 320 323 322 327 325 327 332 328 327 328 328 329 330 331 333 333 339 340 337 336 338 338 335 335 334 334 334 333
298 298 298 298 299 300 303 304 305 303 303 305 307 311 314 314 313 315 315 318 318 320 323 324 325 326 324 328 333 334 333 334 333 333 334 336 339 336 338 338 335 335 334 334 334 334 334
299 298 297 297 297 299 301 305 305 303 303 306 305 306 311 314 315 314 314 315 317 320 321 322 324 320 327 330 332 336 332 331 333 335 333 334 337 337 336 335 335 334 334 333 333 335 331
300 299 298 297 297 297 300 303 304 304 303 304 306 304 310 312 313 314 315 315 315 317 318 320 318 325 327 330 331 332 332 333 334 334 336 336 337 335 334 335 333 335 332 332 334 334 331
300 300 300 298 297 297 299 302 305 305 303 303 306 302 305 309 309 309 310 313 314 313 317 317 320 325 327 330 329 330 332 333 333 334 335 336 336 334 334 336 336 332 331 333 337 332 331
300 300 300 299 298 297 298 301 304 303 305 303 307 305 303 307 309 305 305 307 311 311 312 313 317 324 320 325 327 330 330 331 332 333 331 334 335 336 335 336 334 331 332 331 331 332 332

GFSGBSN_850_thetae_006.txt.gz
Theta_e
311 311 312 313 314 315 315 315 315 315 316 317 318 319 319 319 319 319 321 322 322 324 327 317 316 315 319 322 325 328 324 323 322 321 327 330 329 337 339 335 334 339 340 339 341 341 341
309 309 309 309 310 311 312 312 313 312 313 314 316 317 318 318 319 319 320 322 322 324 327 319 320 314 317 327 326 327 323 321 323 322 328 329 331 337 336 335 335 339 339 338 339 338 341
307 308 308 308 308 308 309 309 310 310 311 312 313 315 316 317 318 319 319 321 321 324 327 321 321 313 325 324 327 328 326 321 324 326 328 328 333 336 334 334 339 339 339 340 338 341 341
305 305 306 307 307 307 307 307 308 308 309 310 311 312 314 315 317 319 319 320 321 324 327 323 320 314 328 328 326 329 327 323 323 326 327 328 335 333 334 335 337 339 340 340 341 342 340
304 304 304 305 305 305 306 306 306 307 307 308 309 310 311 313 314 318 319 320 322 324 327 325 321 332 333 325 325 330 328 324 323 326 327 329 335 332 333 335 340 339 340 342 343 341 341
303 303 304 304 304 304 305 305 306 306 306 307 308 309 310 311 312 316 320 320 323 329 327 323 323 331 333 333 326 329 328 324 326 326 327 333 334 333 333 336 340 339 341 343 344 342 344
303 303 303 303 304 304 304 305 305 306 306 306 307 308 309 310 311 314 320 320 331 337 333 332 330 328 331 331 329 326 327 324 325 326 331 334 333 332 333 335 337 339 339 342 341 344 346
303 303 303 303 303 304 304 304 305 305 305 306 306 307 308 310 311 313 317 317 327 328 330 329 331 331 330 328 328 326 325 326 326 329 331 333 332 333 334 335 335 336 336 337 340 340 342
303 303 303 302 303 303 303 303 304 304 305 305 306 307 308 309 311 316 325 325 326 326 330 329 329 328 330 329 329 326 326 326 327 329 331 332 332 333 333 333 333 335 333 334 339 339 339
304 303 303 302 303 303 303 303 304 304 305 305 306 306 307 309 312 320 322 324 328 327 331 329 329 329 329 329 329 326 326 327 328 330 331 331 333 333 333 332 332 333 333 333 334 337 338
304 304 303 303 303 303 303 304 304 304 305 305 306 306 307 306 309 313 319 320 323 327 331 330 329 328 329 330 328 327 326 326 330 330 330 330 331 332 333 333 333 332 333 332 333 333 334
305 303 303 302 302 302 303 303 303 303 304 305 306 306 307 307 311 315 317 321 322 332 330 330 330 329 330 330 328 328 327 326 328 330 330 331 330 331 331 332 332 332 335 334 333 333 336
304 303 303 302 302 302 302 302 302 303 303 304 305 306 306 307 311 316 317 321 329 333 329 329 330 330 330 330 328 330 328 327 328 330 329 330 330 332 332 332 333 333 335 338 337 337 337
304 303 303 302 301 301 302 302 302 303 303 304 306 307 308 309 311 311 313 322 331 332 331 330 330 330 330 330 328 329 328 327 329 329 329 330 330 332 332 332 333 333 335 336 342 339 338
304 305 303 302 302 301 301 302 302 302 303 303 306 308 313 316 314 313 318 326 329 330 332 330 331 329 330 330 328 329 328 327 329 330 332 331 333 333 332 333 334 334 335 334 336 335 335
304 303 302 302 303 302 302 302 302 302 303 302 305 307 311 316 319 318 319 323 327 327 330 332 332 331 329 329 328 330 329 329 329 331 332 333 335 333 332 333 333 334 334 334 334 339 339
303 301 301 301 301 302 302 302 302 302 303 303 309 320 319 317 321 318 320 323 326 326 328 332 333 334 329 329 329 330 330 329 330 331 333 333 335 334 333 332 332 333 334 334 334 335 337
302 301 300 301 301 301 302 302 302 302 303 304 313 319 320 322 324 321 321 324 325 326 329 331 331 332 333 333 330 329 331 331 330 332 332 333 333 335 334 334 333 333 334 336 337 340 339
301 300 300 300 301 301 302 302 302 302 303 305 314 318 320 323 324 323 323 324 325 326 329 331 330 331 333 334 332 330 330 331 332 332 334 333 334 334 335 334 333 333 334 333 334 335 343
301 300 300 300 301 301 302 302 302 302 303 307 315 320 319 322 322 324 324 326 326 325 328 330 330 330 330 333 333 332 331 331 332 332 331 334 332 335 332 335 335 335 333 332 333 338 337
302 300 300 300 301 300 300 301 303 303 303 310 318 321 324 327 323 324 325 328 330 327 328 330 330 331 332 334 333 332 331 331 331 331 332 333 339 333 331 331 332 333 334 333 333 336 337
301 300 299 300 300 300 299 300 302 303 305 315 317 316 318 320 324 330 323 328 332 329 329 330 330 330 331 334 338 340 338 338 333 332 331 332 336 332 332 332 331 332 332 334 334 333 333
301 301 299 299 299 298 298 299 301 303 305 313 313 311 315 320 324 327 329 330 331 331 329 330 330 332 332 334 335 336 334 335 336 337 335 337 333 338 335 333 333 334 333 332 334 335 334
301 301 301 300 299 298 297 298 300 304 303 307 313 310 316 321 322 324 327 328 329 331 331 330 329 331 333 331 332 334 333 334 336 336 336 340 344 339 337 339 339 334 335 333 333 334 334
301 301 300 301 299 298 297 297 298 302 303 307 313 312 312 318 321 322 324 325 327 328 329 328 330 330 329 330 334 334 335 334 335 337 338 333 343 340 341 337 335 336 336 338 338 339 336
301 301 301 301 300 298 297 297 297 301 303 303 311 312 310 315 320 316 319 319 323 326 327 327 327 327 326 329 331 335 334 334 335 334 337 336 340 343 341 337 338 339 337 335 336 339 338
300 301 301 301 301 300 298 298 297 300 303 305 311 312 311 312 315 313 316 318 319 322 325 327 327 326 325 329 329 330 331 332 334 334 338 336 338 336 336 336 334 335 336 334 339 339 334
301 300 301 301 301 301 300 299 297 299 303 304 312 312 310 311 311 313 312 313 316 321 322 322 324 324 327 329 329 329 330 331 334 337 336 341 339 336 339 338 338 336 337 338 343 336 336
300 301 301 300 301 300 301 300 298 300 303 304 310 311 311 311 311 311 311 312 311 313 316 318 321 329 328 332 330 330 330 331 337 331 334 336 339 343 343 343 337 337 337 335 336 335 334

GFSGBSN_850_thetae_009.txt.gz
Theta_e
308 308 308 308 309 310 311 311 312 313 314 315 316 317 317 317 319 320 320 320 321 322 322 327 325 319 315 320 321 326 326 324 322 322 321 325 330 331 329 336 335 337 337 340 341 343 346
307 307 307 308 308 308 308 309 309 310 312 313 313 315 316 316 317 319 320 321 320 321 321 327 326 319 313 323 323 323 326 324 323 322 321 325 329 329 330 335 335 338 337 340 340 343 346
305 305 305 306 306 306 306 306 307 308 309 310 311 312 313 315 316 318 320 320 321 321 320 326 325 319 313 316 325 327 327 323 322 321 321 327 330 329 330 333 339 339 336 337 340 341 344
304 304 304 304 305 305 305 305 306 307 307 308 309 310 311 313 314 317 320 321 321 321 321 324 324 319 317 326 324 326 328 325 321 324 325 329 328 329 330 334 338 337 335 336 339 340 344
304 304 304 304 304 304 305 305 305 306 307 307 308 309 310 311 312 315 319 321 321 321 323 327 323 325 332 328 326 327 328 326 321 325 326 327 327 329 335 330 333 335 336 340 341 339 339
303 304 304 304 304 304 304 305 305 305 306 306 307 308 309 310 311 313 318 320 322 323 330 326 323 328 326 333 326 326 329 327 322 323 324 326 327 330 329 328 333 335 337 341 342 340 339
303 303 303 303 303 304 304 304 305 305 305 306 306 307 308 310 310 311 318 320 322 332 330 333 330 324 327 330 330 326 328 327 323 323 323 327 330 331 330 328 330 337 337 342 342 340 341
304 303 303 303 303 303 303 304 304 304 305 305 306 307 308 310 311 311 314 316 322 324 326 325 328 333 332 331 331 327 328 328 323 323 324 326 331 332 333 331 332 333 341 341 341 342 341
304 304 304 303 303 303 304 304 304 304 305 305 305 306 308 309 310 312 317 322 322 323 325 326 328 329 328 330 330 328 327 326 322 323 324 326 332 334 333 330 332 331 332 337 342 344 342
305 304 303 303 303 303 303 303 303 304 304 305 305 306 307 309 311 314 318 317 319 322 323 326 328 328 328 329 328 328 326 326 325 323 325 327 331 332 331 330 331 329 332 332 333 343 343
305 304 303 302 302 302 302 302 303 303 303 304 304 305 306 305 308 311 315 317 320 323 331 330 329 327 327 328 329 328 325 326 324 325 325 329 330 330 330 331 331 329 331 331 330 331 334
306 304 303 303 302 301 301 302 302 303 303 303 304 305 305 306 308 313 317 319 322 324 334 330 328 327 328 328 329 329 326 326 327 326 327 328 330 329 330 331 331 332 330 331 328 327 328
305 304 303 303 302 301 301 302 302 302 303 303 304 305 305 306 311 311 311 316 324 327 329 330 327 328 327 328 329 328 325 324 324 323 326 328 328 328 329 328 329 330 328 332 331 330 329
303 303 302 302 301 301 301 302 302 302 303 303 304 306 307 308 310 309 310 318 326 328 327 328 328 328 327 328 328 328 326 325 324 324 326 327 327 327 328 326 326 327 328 333 337 335 334
304 303 301 301 300 301 301 302 302 302 303 303 304 306 307 312 311 311 316 319 323 326 328 328 329 330 327 329 328 326 326 325 324 324 324 326 328 329 329 330 328 329 330 329 331 334 332
303 301 300 300 300 301 301 302 302 302 303 303 304 306 311 312 312 314 318 318 322 323 325 326 326 328 331 328 328 325 326 327 326 326 326 326 328 328 330 329 329 328 330 330 327 333 336
303 301 300 300 300 301 301 302 302 302 303 303 306 316 316 316 316 318 317 318 321 322 323 324 325 326 329 332 328 326 326 328 327 326 326 326 326 329 329 328 328 331 330 330 329 329 331
303 302 300 300 300 301 301 301 302 302 303 304 311 316 318 317 321 322 320 318 319 322 323 324 325 326 330 332 333 327 326 327 328 326 326 327 327 331 329 330 330 329 328 330 333 333 334
303 302 300 300 300 300 301 300 301 303 302 303 310 313 313 320 323 323 322 319 319 321 322 324 325 326 329 330 332 333 329 329 329 327 326 328 329 329 334 330 329 329 329 329 333 329 331
303 302 300 300 300 300 300 300 300 302 303 304 312 320 321 317 321 323 323 324 323 323 323 324 325 329 330 329 329 331 333 332 330 328 329 331 328 331 330 333 330 330 330 330 327 328 329
302 303 302 300 299 300 300 298 299 301 303 307 315 320 318 321 320 319 323 326 323 325 326 326 325 330 330 331 331 332 334 337 331 331 333 330 330 331 330 331 330 332 332 330 329 328 332
301 302 302 301 299 299 299 298 298 300 303 315 317 314 313 312 317 323 325 327 329 324 329 332 330 330 330 333 336 338 336 337 339 331 330 330 334 333 333 332 330 330 331 333 333 330 330
301 301 301 302 302 299 299 298 297 299 303 309 311 314 311 312 315 318 323 322 327 325 330 330 331 331 331 334 332 332 333 333 332 337 334 331 334 332 331 332 331 331 333 332 332 332 331
302 301 302 302 301 301 299 298 297 298 303 305 307 311 313 315 319 321 319 320 327 332 332 329 330 332 329 327 331 332 333 333 333 334 336 339 341 332 330 333 333 332 333 334 335 336 334
301 301 301 302 301 301 299 298 297 297 300 303 307 311 312 311 313 316 316 317 320 323 330 330 329 328 328 327 333 336 333 333 335 335 338 336 337 339 337 331 332 335 333 336 338 337 335
301 301 301 301 301 302 301 299 298 297 299 302 308 313 312 311 315 314 314 316 319 320 323 327 328 328 327 327 332 334 337 337 338 336 336 337 337 338 338 339 344 334 336 336 337 339 335
301 301 300 300 300 301 301 300 299 298 298 302 308 312 312 311 312 313 314 312 314 316 322 324 321 326 326 327 328 331 328 333 337 337 341 338 337 337 337 339 337 335 337 335 337 336 335
301 301 301 300 300 300 301 301 300 298 299 302 308 311 310 313 311 310 312 312 311 312 318 319 322 328 328 332 329 329 329 329 332 334 333 339 339 335 336 337 339 336 338 342 338 337 336
300 301 300 301 300 300 301 301 302 300 299 303 304 310 310 311 312 311 310 311 313 312 311 313 317 324 328 330 331 332 330 330 335 336 335 342 339 344 345 343 336 334 332 333 331 332 332

GFSGBSN_850_thetae_015.txt.gz
Theta_e
305 305 305 306 306 306 306 306 307 307 308 308 309 310 310 311 313 314 316 317 318 319 320 320 319 320 322 319 320 320 321 322 320 320 322 324 323 327 327 325 330 335 338 340 341 344 344
305 305 305 305 305 306 306 306 306 307 307 308 308 309 310 310 311 312 314 316 316 318 320 320 320 319 321 316 321 319 322 323 320 320 323 324 322 326 328 326 331 339 339 341 343 342 341
304 304 304 305 305 305 305 305 306 306 307 307 307 308 309 310 310 311 313 315 315 317 319 320 320 319 320 324 321 321 322 324 323 320 322 323 323 325 326 325 330 340 341 343 342 341 337
304 304 304 304 304 305 305 305 305 305 306 307 308 308 309 310 310 311 312 314 315 318 319 320 321 321 323 325 321 322 324 325 324 323 322 321 321 322 325 327 336 338 338 347 344 343 342
304 305 305 305 305 305 305 305 305 305 305 306 306 308 309 310 310 311 312 313 315 318 319 321 325 325 326 324 324 324 326 326 324 322 324 323 322 324 324 324 329 331 346 342 346 343 344
304 304 304 304 304 304 305 305 305 305 305 305 306 307 307 309 310 310 312 313 315 318 329 326 323 326 325 325 327 328 326 327 326 321 323 323 322 319 320 321 327 340 340 344 346 346 343
304 303 303 303 303 304 304 304 304 304 304 305 306 306 307 308 309 311 312 313 317 322 318 318 321 323 323 326 326 327 329 326 325 320 318 320 319 320 320 324 325 329 336 344 344 341 346
303 303 303 302 302 302 303 303 303 303 303 304 305 306 307 308 308 310 311 312 316 314 313 317 319 320 322 323 325 328 328 325 321 317 317 318 318 320 321 325 326 327 336 340 338 341 345
303 302 302 302 302 302 302 302 302 302 302 303 304 305 306 307 308 310 311 310 312 311 313 318 321 322 322 324 326 326 328 328 319 316 317 316 319 322 326 329 330 327 329 336 337 340 343
302 302 301 301 301 301 301 301 302 302 302 302 303 304 305 307 309 309 311 310 312 312 316 319 321 322 322 324 326 326 327 328 320 320 317 318 320 324 328 329 329 330 327 333 338 340 344
302 302 302 301 301 301 301 301 301 302 302 302 303 303 303 303 305 308 309 311 312 318 323 321 323 325 324 324 325 324 326 327 321 319 318 319 321 322 326 329 329 329 326 328 337 338 341
302 302 301 301 301 301 301 301 301 302 302 302 303 303 304 304 305 308 310 310 315 318 325 325 326 324 324 324 325 325 327 327 326 319 319 319 322 322 322 324 328 328 326 322 323 331 340
302 303 301 300 300 300 300 301 301 301 302 303 303 304 304 304 306 306 307 308 317 319 321 324 323 322 322 323 323 324 321 320 322 322 318 320 320 322 326 326 325 324 321 323 328 336 339
301 302 301 300 300 300 300 300 301 301 302 303 303 304 306 306 306 306 306 309 318 320 320 320 321 321 324 324 323 324 320 322 319 319 318 317 320 320 322 324 324 322 321 322 324 326 330
302 302 303 302 301 299 300 300 300 301 301 302 303 305 306 308 308 307 308 309 314 318 322 323 320 323 322 322 323 324 320 321 322 317 320 318 319 322 322 323 323 324 322 321 321 323 326
303 302 304 304 302 300 299 300 300 300 301 302 303 305 307 315 311 306 307 308 311 316 319 319 320 321 322 321 321 320 322 321 321 318 317 318 320 319 323 323 322 323 321 324 320 326 330
304 303 303 304 303 301 299 299 300 300 300 301 303 304 308 315 309 310 306 306 310 313 314 318 320 320 321 320 320 321 321 322 322 321 319 315 318 320 323 321 323 324 321 321 320 321 325
300 302 303 302 304 303 300 299 299 299 298 301 303 301 312 310 311 308 309 309 313 314 315 314 316 316 317 320 319 319 320 321 324 322 318 316 317 320 320 321 322 320 322 321 324 323 322
302 303 302 301 302 303 302 299 299 299 297 299 305 305 308 312 310 312 313 317 317 316 315 316 315 316 317 319 318 319 321 322 325 324 321 316 315 318 319 320 322 323 322 321 319 320 326
303 301 301 301 301 303 303 303 299 299 297 300 306 308 314 314 312 312 313 316 320 321 318 317 315 316 318 318 317 318 323 324 328 323 325 321 313 321 322 321 321 325 324 323 323 323 323
302 300 300 302 301 301 303 303 301 299 298 304 309 311 310 310 311 308 310 314 320 320 319 321 321 322 322 324 323 325 326 328 330 329 330 320 318 316 321 322 323 324 325 324 325 324 327
302 301 301 302 303 303 303 303 302 299 298 306 309 309 310 311 309 308 311 315 316 316 316 323 321 323 325 324 326 328 328 327 329 327 325 318 319 320 321 321 322 323 324 325 325 323 326
301 300 301 301 302 302 302 302 302 301 299 302 305 306 308 311 308 310 313 313 315 314 316 317 327 326 327 325 326 327 326 327 327 328 327 318 321 317 323 322 323 325 325 325 326 327 327
301 300 301 301 301 301 301 302 302 302 301 301 302 304 307 311 309 310 311 311 313 314 313 316 322 326 327 327 327 327 324 323 326 329 325 324 320 318 323 323 326 324 329 327 332 334 333
300 301 301 300 301 302 302 301 302 302 301 302 301 303 307 311 310 312 311 310 311 311 314 319 322 320 324 323 322 328 329 328 331 332 328 325 319 326 324 324 326 332 333 335 332 333 332
300 300 300 300 300 302 300 301 301 302 302 301 300 303 304 309 310 310 310 309 311 311 311 318 318 322 326 318 324 328 332 331 334 331 329 326 323 326 327 325 329 333 332 333 331 332 331
300 300 300 300 301 301 300 300 301 301 302 301 301 303 304 308 309 310 309 309 309 312 310 315 313 320 325 320 322 325 326 331 336 334 334 334 333 331 331 333 332 331 331 332 336 332 330
301 301 301 301 301 300 301 300 301 301 302 302 301 303 305 308 308 308 309 310 311 311 313 312 313 320 322 326 328 327 329 327 336 335 336 335 338 337 333 332 336 330 331 334 331 328 330
302 301 301 301 300 300 301 301 301 301 302 302 301 304 305 304 307 309 309 309 309 309 310 310 310 318 320 320 324 323 331 329 333 338 333 334 335 337 333 331 329 332 330 329 329 329 329

GFSGBSN_850_thetae_021.txt.gz
Theta_e
305 305 305 305 305 305 305 305 305 306 306 307 308 308 309 309 309 310 311 311 311 313 315 317 318 318 318 317 320 321 320 319 320 320 320 322 323 325 329 332 330 335 338 340 341 342 345
305 305 305 305 305 305 305 305 305 305 305 305 306 307 308 308 309 310 311 311 311 312 314 316 318 318 317 318 319 322 322 321 320 320 320 322 323 325 328 329 332 335 339 343 342 343 345
305 305 305 305 304 304 305 305 305 305 305 305 306 306 307 307 308 309 310 311 312 312 313 315 317 317 317 320 320 320 323 323 322 321 320 322 322 327 327 328 331 339 344 344 343 343 345
304 303 304 304 304 304 304 304 304 304 304 305 306 306 307 307 308 309 310 311 312 312 313 316 318 319 320 320 321 326 326 321 323 321 321 322 323 323 325 330 340 342 342 345 344 343 344
304 303 303 302 302 302 303 303 303 303 303 304 305 305 306 307 308 309 309 311 313 313 313 317 322 321 322 323 326 326 324 322 323 321 321 322 323 322 324 338 343 342 344 345 347 343 345
306 304 303 302 302 302 302 302 302 303 303 304 304 305 306 306 307 308 309 312 312 313 321 324 324 325 323 326 325 324 326 323 323 321 322 321 321 323 326 335 338 343 345 345 348 345 345
307 305 303 302 301 301 301 301 301 302 302 302 303 304 305 306 306 307 309 311 314 316 315 322 324 326 325 324 324 326 325 322 322 322 323 321 322 323 327 334 337 341 343 344 346 345 346
308 306 305 303 302 301 301 301 301 301 302 302 302 303 304 306 306 307 308 308 312 309 310 315 316 316 317 319 321 323 324 324 322 323 320 322 322 323 325 330 336 342 343 344 344 345 345
309 308 306 303 301 301 301 301 301 301 301 302 302 303 303 305 305 308 308 310 309 306 309 313 315 315 317 317 319 320 325 324 324 322 321 322 322 322 324 327 329 340 343 345 344 345 346
309 308 307 305 303 301 301 301 301 301 301 302 302 302 302 304 306 305 309 308 306 307 317 321 319 320 320 320 320 320 322 325 322 326 320 321 321 322 324 327 329 333 339 343 344 346 349
309 309 308 306 303 301 301 300 300 300 301 301 301 302 302 302 303 305 305 305 306 313 322 321 321 321 321 322 322 322 322 325 327 324 322 325 320 322 323 326 328 332 334 339 343 346 346
308 308 307 307 304 302 302 301 300 300 301 301 301 302 302 303 303 305 306 305 313 321 322 323 324 324 323 323 323 323 323 324 325 325 321 325 320 323 324 326 328 329 332 334 340 342 347
307 306 306 306 306 303 303 302 300 300 300 301 301 302 302 302 304 304 304 305 316 320 320 322 323 321 322 324 324 324 325 326 327 328 326 325 324 323 323 325 329 330 333 336 339 344 340
305 305 305 305 305 303 302 302 301 300 300 300 301 302 303 304 304 305 304 310 316 317 320 320 321 321 322 323 324 324 326 325 327 328 327 327 326 323 324 325 328 329 331 334 338 338 337
305 304 304 305 304 303 302 302 301 300 300 300 301 303 303 304 308 309 305 308 313 316 320 320 321 321 322 322 322 324 325 325 326 328 327 327 326 321 323 324 329 329 330 332 332 328 335
305 304 304 303 303 303 304 302 302 304 300 300 300 302 304 308 312 308 306 308 310 315 319 320 322 322 323 322 322 323 324 324 326 325 328 324 325 323 322 324 325 327 328 328 329 337 334
305 304 305 304 303 303 301 302 302 304 301 300 300 301 304 310 308 305 307 306 308 310 315 318 320 321 321 322 321 321 321 323 323 324 327 326 324 323 322 323 325 325 326 327 330 331 336
305 305 304 305 303 302 301 302 303 303 302 300 299 303 306 307 310 306 308 309 309 311 311 314 315 319 320 320 320 320 321 322 321 321 323 324 327 327 324 324 323 325 326 328 332 333 330
304 303 303 303 303 302 301 303 302 303 302 300 302 303 304 307 312 312 313 314 315 312 314 313 313 316 317 318 319 319 319 320 321 322 325 321 324 327 327 326 323 323 325 326 327 329 337
303 303 303 302 303 302 301 303 303 303 302 300 303 307 310 308 308 311 313 314 315 317 318 313 315 316 316 316 318 319 320 321 321 321 321 322 326 327 328 328 326 325 324 324 325 329 328
303 303 303 304 303 301 301 302 302 302 302 301 304 307 309 313 312 312 311 311 313 314 318 317 319 316 317 318 319 319 321 321 322 322 327 330 333 330 330 328 327 325 324 324 326 327 329
303 303 303 303 303 301 302 302 303 303 302 301 304 306 305 307 308 311 310 311 314 316 316 318 320 322 322 323 324 322 323 323 324 327 326 325 330 328 331 330 327 326 326 325 325 325 327
301 300 301 301 301 301 302 303 302 303 302 302 302 301 303 304 307 309 310 311 312 311 314 315 315 315 318 322 323 322 323 322 325 329 334 332 328 327 328 328 326 326 327 326 326 327 327
301 300 300 300 301 301 300 301 301 302 302 302 302 300 303 304 306 308 310 310 311 311 311 312 311 314 316 317 318 322 320 322 326 328 331 334 331 327 331 326 326 326 327 327 327 327 328
302 301 301 301 300 301 301 302 302 302 302 302 302 301 301 303 304 306 308 310 310 311 311 311 312 313 313 315 324 329 329 328 328 330 331 334 332 335 333 331 328 331 334 327 325 329 330
302 303 302 303 302 302 301 302 300 301 302 302 302 302 301 301 301 302 307 308 310 310 311 312 312 312 319 324 326 330 332 331 334 335 331 331 332 337 333 331 331 332 333 333 334 331 335
301 301 302 302 302 301 301 301 302 302 302 302 302 302 301 302 302 303 304 307 308 310 311 310 312 313 321 328 329 329 330 331 336 335 338 339 341 338 337 333 332 334 333 333 336 336 334
301 302 301 302 302 302 301 301 301 301 302 302 302 302 302 302 301 302 303 303 307 308 309 309 312 317 322 330 332 330 332 334 336 336 336 339 341 342 340 338 335 331 333 338 335 333 333
301 302 302 302 302 302 302 302 301 301 302 302 302 302 302 301 301 301 302 304 304 305 306 309 312 310 316 322 325 327 335 334 338 338 335 338 338 340 337 336 331 328 332 330 330 332 334